Find Geely Xingzuo 06 zu 10 xing

NORAD ID: 65722 Int'l Des: 2025-214 Owner: GEESP Country: CN Constellation: geesatcom operational
LEOCIRCULAR

Current View

Loading 3D Globe...

About Geely Xingzuo 06 zu 10 xing

Description loading...

Upcoming Passes

Passes for default location (London). Set your location on the main map for personalized predictions.

Altitude History

Loading altitude history...

Two-Line Element Set

1 65722U 25214L 26150.07546521 .00002248 00000-0 29893-3 0 9990
2 65722 49.9905 32.6295 0011753 163.1578 196.9752 14.83300282 36813
Epoch: May 30, 2026 • Age: 22 hours

Current Status

Altitude 612.1 km
Velocity 7.56 km/s
Sub-Earth Point -3.17°S, 32.27°W
Launch Date Sep 24, 2025
Age 0.6 years
Type other

Technical Details

Classification Payload
Mass 130.00 kg
Dry Mass 130.00 kg
Total Mass 130.00 kg
Length 1.00 m
Diameter 0.50 m
Span 2.00 m
Shape Box + 2 pan
Manufacturer GWCG
Bus Type GPS100
Phase Status In Orbit
Owner/State GEESP/CN

Most Searched